Weather History for KFLL - October, 2014

Change the Weather History Date:

Sunday, October 5, 2014

  Actual Average Record
Temperature  
Mean Temperature 78 °F 82 °F  
Max Temperature 86 °F 88 °F 94 °F (2000)
Min Temperature 70 °F 77 °F 64 °F (1938)
Degree Days  
Heating Degree Days 0 0  
Month to date heating degree days 0 0  
Since 1 July heating degree days 0 0  
Cooling Degree Days 13 17  
Month to date cooling degree days 95 86  
Year to date cooling degree days 3960 3798  
Growing Degree Days 27 (Base 50)    
Moisture  
Dew Point 62 °F    
Average Humidity 58    
Maximum Humidity 79    
Minimum Humidity 37    
Precipitation  
Precipitation 0.00 in 0.27 in 10.45 in (1948)
Month to date precipitation 0.64 1.37  
Year to date precipitation 54.61 51.03  
Snow  
Snow 0.00 in - - ()
Month to date snowfall 0.0  
Since 1 July snowfall 0.0  
Since 1 September snowfall 0.0  
Snow Depth 0.00 in    
Sea Level Pressure  
Sea Level Pressure 29.94 in    
Wind  
Wind Speed 7 mph (NNW)    
Max Wind Speed 14 mph    
Max Gust Speed 19 mph    
Visibility 10 miles    
Events      
T = Trace of Precipitation, MM = Missing Value Source: NWS Daily Summary

Daily Weather History Graph

Daily Weather History Graph

Search for Another Location

Airport or City:

Trip Planner

Search our weather history database for the weather conditions in past years. The results will help you decide how hot, cold, wet, or windy it might be!

Date:

Astronomy

Oct. 05, 2014 Rise Set
Actual Time 7:14 AM EDT 7:02 PM EDT
Civil Twilight 6:51 AM EDT 7:25 PM EDT
Nautical Twilight 6:24 AM EDT 7:52 PM EDT
Astronomical Twilight 5:58 AM EDT 8:19 PM EDT
Moon 5:04 PM EDT (10/5) 4:07 AM EDT (10/5)
Length of Visible Light 12h 34m
Length of Day
11h 48m
Waxing Gibbous, 89% of the Moon is Illuminated
Oct 5
Waxing Gibbous
Oct 8
Full
Oct 15
Last Quarter
Oct 23
New
Oct 30
First Quarter

Hourly Weather History & Observations

Time (EDT) Temp. Heat Index Dew Point Humidity Pressure Visibility Wind Dir Wind Speed Gust Speed Precip Events Conditions
12:53 AM 78.1 °F - 71.1 °F 79% 29.91 in 10.0 mi NW 9.2 mph - N/A   Scattered Clouds
1:53 AM 75.9 °F - 68.0 °F 76% 29.91 in 10.0 mi NW 8.1 mph - N/A   Partly Cloudy
2:53 AM 75.0 °F - 63.0 °F 66% 29.90 in 10.0 mi NNW 6.9 mph - N/A   Partly Cloudy
3:53 AM 73.0 °F - 62.1 °F 68% 29.89 in 10.0 mi NW 11.5 mph - N/A   Partly Cloudy
4:53 AM 72.0 °F - 61.0 °F 68% 29.89 in 10.0 mi NW 9.2 mph - N/A   Partly Cloudy
5:53 AM 71.1 °F - 60.1 °F 68% 29.91 in 10.0 mi NW 9.2 mph - N/A   Partly Cloudy
6:53 AM 70.0 °F - 60.1 °F 71% 29.92 in 10.0 mi NW 5.8 mph - N/A   Mostly Cloudy
7:53 AM 70.0 °F - 60.1 °F 71% 29.93 in 10.0 mi NW 5.8 mph - N/A   Mostly Cloudy
8:53 AM 71.1 °F - 60.1 °F 68% 29.96 in 10.0 mi NW 5.8 mph - N/A   Mostly Cloudy
9:53 AM 73.9 °F - 57.9 °F 57% 29.96 in 10.0 mi NW 8.1 mph - N/A   Mostly Cloudy
10:53 AM 77.0 °F - 57.0 °F 50% 29.97 in 10.0 mi NNW 11.5 mph - N/A   Mostly Cloudy
11:53 AM 80.1 °F 80.6 °F 57.9 °F 47% 29.96 in 10.0 mi NNW 8.1 mph - N/A   Mostly Cloudy
12:53 PM 82.9 °F 81.9 °F 54.0 °F 37% 29.94 in 10.0 mi NNE 6.9 mph - N/A   Mostly Cloudy
1:53 PM 84.0 °F 84.0 °F 60.1 °F 44% 29.93 in 10.0 mi Variable 3.5 mph - N/A   Mostly Cloudy
2:53 PM 84.9 °F 84.4 °F 59.0 °F 41% 29.91 in 10.0 mi Variable 5.8 mph - N/A   Mostly Cloudy
3:53 PM 84.9 °F 84.2 °F 57.9 °F 40% 29.91 in 10.0 mi ENE 10.4 mph - N/A   Mostly Cloudy
4:53 PM 84.0 °F 83.3 °F 57.0 °F 40% 29.91 in 10.0 mi NE 9.2 mph - N/A   Scattered Clouds
5:53 PM 82.9 °F 84.0 °F 63.0 °F 51% 29.91 in 10.0 mi NE 9.2 mph - N/A   Mostly Cloudy
6:53 PM 80.1 °F 81.9 °F 64.9 °F 60% 29.93 in 10.0 mi NE 8.1 mph - N/A   Mostly Cloudy
7:53 PM 79.0 °F - 66.0 °F 64% 29.95 in 10.0 mi NNE 4.6 mph - N/A   Scattered Clouds
8:53 PM 78.1 °F - 66.9 °F 68% 29.97 in 10.0 mi North 6.9 mph - N/A   Scattered Clouds
9:53 PM 77.0 °F - 66.0 °F 69% 29.99 in 10.0 mi North 5.8 mph - N/A   Scattered Clouds
10:53 PM 75.9 °F - 66.0 °F 71% 29.99 in 10.0 mi North 6.9 mph - N/A   Scattered Clouds
11:53 PM 75.0 °F - 66.0 °F 73% 29.99 in 10.0 mi North 5.8 mph - N/A   Partly Cloudy